| time (UTC) | temp F | wind direction | speed MPH | gust MPH | rain 1hr in | rain 24hr in | rain mn in | humidity % | barometer mb |
| 20260504033405 | 63 | 122 | 0.0 | 1.0 | 0.00 | 0.00 | 0.00 | 66 | 1032.9 |
| 20260504032905 | 63 | 122 | 0.0 | 2.0 | 0.00 | 0.00 | 0.00 | 67 | 1032.9 |
| 20260504031906 | 62 | 123 | 1.0 | 3.0 | 0.00 | 0.00 | 0.00 | 71 | 1033.0 |
| 20260504025906 | 63 | 133 | 5.0 | 7.0 | 0.00 | 0.00 | 0.00 | 67 | 1032.9 |
| 20260504024905 | 65 | 143 | 3.0 | 5.0 | 0.00 | 0.00 | 0.00 | 64 | 1032.9 |
| 20260504023406 | 65 | 222 | 2.0 | 5.0 | 0.00 | 0.00 | 0.00 | 63 | 1032.9 |
| 20260504022405 | 65 | 203 | 2.0 | 3.0 | 0.00 | 0.00 | 0.00 | 65 | 1033.0 |
| 20260504021905 | 64 | 117 | 1.0 | 3.0 | 0.00 | 0.00 | 0.00 | 64 | 1033.1 |
| 20260504020406 | 65 | 129 | 2.0 | 3.0 | 0.00 | 0.00 | 0.00 | 63 | 1033.1 |
| 20260504014405 | 65 | 312 | 3.0 | 5.0 | 0.00 | 0.00 | 0.00 | 62 | 1033.4 |
| 20260504013405 | 64 | 264 | 2.0 | 3.0 | 0.00 | 0.00 | 0.00 | 64 | 1033.5 |
| 20260504012904 | 64 | 261 | 1.0 | 5.0 | 0.00 | 0.00 | 0.00 | 65 | 1033.5 |
| 20260504012405 | 64 | 261 | 2.0 | 3.0 | 0.00 | 0.00 | 0.00 | 64 | 1033.5 |
| 20260504011905 | 64 | 294 | 2.0 | 3.0 | 0.00 | 0.00 | 0.00 | 64 | 1033.6 |
| 20260504011405 | 64 | 244 | 1.0 | 3.0 | 0.00 | 0.00 | 0.00 | 63 | 1033.7 |
| 20260504010405 | 63 | 197 | 0.0 | 2.0 | 0.00 | 0.00 | 0.00 | 65 | 1033.9 |
| 20260504005905 | 63 | 152 | 0.0 | 1.0 | 0.00 | 0.00 | 0.00 | 65 | 1033.9 |
| 20260504004905 | 63 | 151 | 0.0 | 2.0 | 0.00 | 0.00 | 0.00 | 65 | 1034.0 |
| 20260504004405 | 64 | 101 | 1.0 | 2.0 | 0.00 | 0.00 | 0.00 | 66 | 1034.0 |
| 20260504003905 | 64 | 84 | 1.0 | 3.0 | 0.00 | 0.00 | 0.00 | 64 | 1034.0 |
| 20260504000405 | 64 | 281 | 1.0 | 3.0 | 0.00 | 0.00 | 0.00 | 70 | 1034.4 |
| 20260503235905 | 63 | 173 | 3.0 | 3.0 | 0.00 | 0.00 | 0.00 | 73 | 1034.5 |
| 20260503234905 | 62 | 196 | 1.0 | 6.0 | 0.00 | 0.00 | 0.00 | 72 | 1034.5 |
| 20260503233905 | 62 | 147 | 3.0 | 7.0 | 0.00 | 0.00 | 0.00 | 77 | 1034.7 |
| 20260503233405 | 61 | 139 | 5.0 | 7.0 | 0.00 | 0.00 | 0.00 | 80 | 1034.7 |
| 20260503231905 | 60 | 155 | 5.0 | 9.0 | 0.00 | 0.00 | 0.00 | 84 | 1034.7 |
| 20260503230905 | 59 | 176 | 5.0 | 7.0 | 0.00 | 0.00 | 0.00 | 86 | 1034.8 |
| 20260503230405 | 59 | 182 | 3.0 | 5.0 | 0.00 | 0.00 | 0.00 | 87 | 1034.8 |
| 20260503225905 | 58 | 157 | 3.0 | 6.0 | 0.00 | 0.00 | 0.00 | 89 | 1034.8 |
| 20260503224405 | 57 | 171 | 2.0 | 3.0 | 0.00 | 0.00 | 0.00 | 91 | 1034.7 |
| 20260503223905 | 57 | 159 | 2.0 | 3.0 | 0.00 | 0.00 | 0.00 | 91 | 1034.8 |
| 20260503223405 | 57 | 165 | 1.0 | 3.0 | 0.00 | 0.00 | 0.00 | 92 | 1034.9 |
| 20260503220905 | 54 | 149 | 0.0 | 1.0 | 0.00 | 0.00 | 0.00 | 94 | 1035.1 |
| 20260503215405 | 53 | 153 | 1.0 | 2.0 | 0.00 | 0.00 | 0.00 | 95 | 1035.1 |
| 20260503214405 | 52 | 153 | 0.0 | 1.0 | 0.00 | 0.00 | 0.00 | 95 | 1035.1 |
| 20260503213905 | 52 | 153 | 0.0 | 1.0 | 0.00 | 0.00 | 0.00 | 95 | 1035.1 |
| 20260503212905 | 52 | 155 | 2.0 | 3.0 | 0.00 | 0.00 | 0.00 | 95 | 1035.2 |
| 20260503212405 | 52 | 183 | 1.0 | 2.0 | 0.00 | 0.00 | 0.00 | 95 | 1035.2 |
| 20260503211405 | 51 | 195 | 0.0 | 0.0 | 0.00 | 0.00 | 0.00 | 95 | 1035.3 |
| 20260503210405 | 51 | 197 | 0.0 | 2.0 | 0.00 | 0.00 | 0.00 | 95 | 1035.3 |
| 20260503205906 | 51 | 197 | 1.0 | 2.0 | 0.00 | 0.00 | 0.00 | 95 | 1035.4 |
| 20260503203905 | 49 | 198 | 0.0 | 1.0 | 0.00 | 0.00 | 0.00 | 95 | 1035.2 |
| 20260503203405 | 49 | 198 | 0.0 | 2.0 | 0.00 | 0.00 | 0.00 | 95 | 1035.1 |
| 20260503202905 | 49 | 199 | 0.0 | 1.0 | 0.00 | 0.00 | 0.00 | 95 | 1035.0 |
| 20260503200405 | 47 | 200 | 1.0 | 3.0 | 0.00 | 0.00 | 0.00 | 95 | 1034.9 |
| 20260503195904 | 47 | 200 | 4.0 | 5.0 | 0.00 | 0.00 | 0.00 | 95 | 1034.9 |
| 20260503195405 | 47 | 217 | 1.0 | 3.0 | 0.00 | 0.00 | 0.00 | 95 | 1034.9 |
| 20260503192905 | 45 | 240 | 0.0 | 1.0 | 0.00 | 0.00 | 0.00 | 95 | 1034.7 |
| 20260503185406 | 43 | 238 | 0.0 | 0.0 | 0.00 | 0.00 | 0.00 | 95 | 1034.4 |
| 20260503183406 | 44 | 238 | 0.0 | 0.0 | 0.00 | 0.00 | 0.00 | 95 | 1034.3 |
| 20260503182906 | 44 | 238 | 0.0 | 0.0 | 0.00 | 0.00 | 0.00 | 95 | 1034.2 |
| 20260503182406 | 45 | 238 | 0.0 | 1.0 | 0.00 | 0.00 | 0.00 | 95 | 1034.1 |
| 20260503180906 | 45 | 228 | 1.0 | 1.0 | 0.00 | 0.00 | 0.00 | 95 | 1033.9 |
| 20260503180406 | 46 | 227 | 0.0 | 1.0 | 0.00 | 0.00 | 0.00 | 95 | 1033.9 |
| 20260503175905 | 46 | 226 | 0.0 | 1.0 | 0.00 | 0.01 | 0.00 | 95 | 1033.9 |
| 20260503175405 | 46 | 226 | 0.0 | 1.0 | 0.00 | 0.01 | 0.00 | 95 | 1033.9 |
| 20260503174905 | 46 | 222 | 0.0 | 1.0 | 0.00 | 0.01 | 0.00 | 95 | 1033.8 |
| 20260503173906 | 46 | 219 | 0.0 | 2.0 | 0.00 | 0.01 | 0.00 | 95 | 1033.7 |
| 20260503173406 | 45 | 219 | 0.0 | 1.0 | 0.00 | 0.01 | 0.00 | 95 | 1033.8 |
| 20260503172405 | 45 | 111 | 0.0 | 0.0 | 0.00 | 0.01 | 0.00 | 95 | 1033.8 |
| 20260503171407 | 45 | 103 | 0.0 | 0.0 | 0.00 | 0.01 | 0.00 | 95 | 1033.9 |
| 20260503170906 | 45 | 103 | 0.0 | 1.0 | 0.00 | 0.01 | 0.00 | 95 | 1034.0 |
| 20260503150906 | 45 | 90 | 0.0 | 2.0 | 0.00 | 0.01 | 0.00 | 95 | 1034.5 |
| 20260503150406 | 45 | 84 | 0.0 | 1.0 | 0.00 | 0.01 | 0.00 | 95 | 1034.6 |
| 20260503131405 | 39 | 270 | 0.0 | 0.0 | 0.00 | 0.01 | 0.00 | 94 | 1035.0 |
| 20260503130405 | 40 | 270 | 0.0 | 0.0 | 0.00 | 0.01 | 0.00 | 93 | 1035.1 |
| 20260503110406 | 42 | 271 | 0.0 | 0.0 | 0.00 | 0.01 | 0.01 | 93 | 1034.6 |
| 20260503081405 | 47 | 251 | 0.0 | 0.0 | 0.00 | 0.01 | 0.01 | 90 | 1033.2 |
| 20260503072904 | 50 | 251 | 0.0 | 0.0 | 0.00 | 0.01 | 0.01 | 89 | 1033.0 |
| 20260503072404 | 50 | 251 | 0.0 | 0.0 | 0.00 | 0.01 | 0.01 | 88 | 1033.0 |
| 20260503071404 | 49 | 251 | 0.0 | 0.0 | 0.00 | 0.01 | 0.01 | 87 | 1033.0 |
| 20260503070905 | 50 | 251 | 0.0 | 0.0 | 0.00 | 0.01 | 0.01 | 86 | 1033.0 |
| 20260503053905 | 58 | 20 | 0.0 | 0.0 | 0.00 | 0.01 | 0.01 | 76 | 1032.5 |
| 20260503052906 | 59 | 20 | 1.0 | 2.0 | 0.00 | 0.01 | 0.01 | 73 | 1032.5 |
| 20260503051905 | 61 | 21 | 1.0 | 1.0 | 0.00 | 0.01 | 0.01 | 71 | 1032.5 |
| 20260503051405 | 62 | 21 | 1.0 | 2.0 | 0.00 | 0.01 | 0.01 | 68 | 1032.5 |
| 20260503045406 | 65 | 25 | 0.0 | 0.0 | 0.00 | 0.01 | 0.01 | 63 | 1032.3 |
| 20260503043904 | 64 | 25 | 0.0 | 1.0 | 0.00 | 0.01 | 0.01 | 66 | 1032.4 |
| 20260503043406 | 64 | 25 | 0.0 | 1.0 | 0.00 | 0.01 | 0.01 | 67 | 1032.5 |
| 20260503042905 | 64 | 31 | 0.0 | 2.0 | 0.00 | 0.01 | 0.01 | 67 | 1032.5 |
| 20260503042406 | 64 | 31 | 2.0 | 2.0 | 0.00 | 0.01 | 0.01 | 66 | 1032.5 |
| 20260503041906 | 64 | 30 | 1.0 | 2.0 | 0.00 | 0.01 | 0.01 | 64 | 1032.5 |
| 20260503040905 | 65 | 26 | 1.0 | 3.0 | 0.00 | 0.01 | 0.01 | 63 | 1032.5 |
| 20260503035905 | 65 | 25 | 0.0 | 1.0 | 0.00 | 0.01 | 0.01 | 62 | 1032.5 |
| 20260503035405 | 65 | 25 | 1.0 | 2.0 | 0.00 | 0.01 | 0.01 | 62 | 1032.5 |
| 20260503034905 | 65 | 23 | 0.0 | 2.0 | 0.00 | 0.01 | 0.01 | 64 | 1032.5 |